FAB2009 SBTT-SBUA

Flight info

Callsign FAB2009
Flight time 1h 5m
Altitude 21000
Route DCT 2 16 24 S 68 27 12 W DCT
Aircraft C97/L-SDE3/C

Departure

Time 2026-04-25 11:16
Airport Tabatinga International Airport (SBTT)

Arrival

Time 2026-04-25 12:22
Airport São Gabriel da Cachoeira Airport (SBUA)
Time Latitude Longitude Altitude Speed Heading
2026-04-25 11:07 -4.25173 -69.93950 285 ft 0 kts
2026-04-25 11:11 -4.25165 -69.93950 285 ft 1 kts
2026-04-25 11:12 -4.25175 -69.93948 285 ft 3 kts 325°
2026-04-25 11:12 -4.25180 -69.93934 285 ft 0 kts 250°
2026-04-25 11:13 -4.25181 -69.93936 285 ft 4 kts 248°
2026-04-25 11:13 -4.25264 -69.93944 285 ft 7 kts 200°
2026-04-25 11:13 -4.25342 -69.93981 285 ft 11 kts 204°
2026-04-25 11:13 -4.25382 -69.94010 285 ft 3 kts 258°
2026-04-25 11:14 -4.25341 -69.94100 285 ft 15 kts 296°
2026-04-25 11:14 -4.25297 -69.94196 285 ft 17 kts 295°
2026-04-25 11:14 -4.25253 -69.94289 285 ft 18 kts 295°
2026-04-25 11:14 -4.25206 -69.94382 285 ft 14 kts 301°
2026-04-25 11:15 -4.25180 -69.94438 285 ft 1 kts 207°
2026-04-25 11:15 -4.25187 -69.94439 285 ft 1 kts 164°
2026-04-25 11:15 -4.25193 -69.94435 285 ft 4 kts 135°
2026-04-25 11:15 -4.25217 -69.94364 285 ft 39 kts 115°
2026-04-25 11:16 -4.25833 -69.93072 546 ft 144 kts 117°
2026-04-25 11:16 -4.26258 -69.92072 961 ft 165 kts 111°
2026-04-25 11:16 -4.26718 -69.90954 1371 ft 183 kts 111°
2026-04-25 11:17 -4.26879 -69.89638 1758 ft 198 kts 82°
2026-04-25 11:17 -4.26316 -69.88351 2151 ft 210 kts 52°
2026-04-25 11:17 -4.25203 -69.87378 2556 ft 219 kts 34°
2026-04-25 11:17 -4.23881 -69.86564 2944 ft 227 kts 30°
2026-04-25 11:18 -4.22479 -69.85760 3330 ft 234 kts 30°
2026-04-25 11:18 -4.21076 -69.84933 3706 ft 239 kts 31°
2026-04-25 11:18 -4.19635 -69.84039 4091 ft 243 kts 32°
2026-04-25 11:18 -4.18209 -69.83112 4469 ft 246 kts 32°
2026-04-25 11:19 -4.16781 -69.82151 4846 ft 250 kts 32°
2026-04-25 11:19 -4.15331 -69.81151 5225 ft 254 kts 32°
2026-04-25 11:19 -4.13889 -69.80141 5598 ft 258 kts 32°
2026-04-25 11:19 -4.12396 -69.79083 5978 ft 262 kts 32°
2026-04-25 11:20 -4.10907 -69.78022 6351 ft 267 kts 32°
2026-04-25 11:20 -4.09374 -69.76925 6729 ft 272 kts 32°
2026-04-25 11:20 -4.07823 -69.75813 7108 ft 275 kts 32°
2026-04-25 11:20 -4.06270 -69.74695 7483 ft 278 kts 32°
2026-04-25 11:21 -4.04698 -69.73561 7859 ft 280 kts 32°
2026-04-25 11:21 -4.03105 -69.72411 8237 ft 282 kts 32°
2026-04-25 11:21 -4.01515 -69.71262 8612 ft 284 kts 32°
2026-04-25 11:21 -3.99898 -69.70091 8991 ft 285 kts 32°
2026-04-25 11:22 -3.98286 -69.68924 9367 ft 286 kts 32°
2026-04-25 11:22 -3.97203 -69.68140 9619 ft 287 kts 32°
2026-04-25 11:22 -3.95041 -69.66574 10119 ft 289 kts 32°
2026-04-25 11:22 -3.93407 -69.65391 10496 ft 290 kts 32°
2026-04-25 11:23 -3.91784 -69.64215 10868 ft 291 kts 32°
2026-04-25 11:23 -3.90139 -69.63024 11244 ft 292 kts 32°
2026-04-25 11:23 -3.88477 -69.61820 11622 ft 294 kts 32°
2026-04-25 11:23 -3.86824 -69.60623 11996 ft 295 kts 32°
2026-04-25 11:24 -3.85165 -69.59421 12371 ft 296 kts 32°
2026-04-25 11:24 -3.83495 -69.58212 12746 ft 297 kts 32°
2026-04-25 11:24 -3.81801 -69.56986 13125 ft 298 kts 32°
2026-04-25 11:24 -3.80133 -69.55778 13498 ft 299 kts 32°
2026-04-25 11:25 -3.78432 -69.54546 13875 ft 301 kts 32°
2026-04-25 11:25 -3.76728 -69.53312 14253 ft 302 kts 32°
2026-04-25 11:25 -3.75026 -69.52080 14644 ft 302 kts 32°
2026-04-25 11:25 -3.73313 -69.50842 14917 ft 307 kts 32°
2026-04-25 11:26 -3.71555 -69.49570 15173 ft 311 kts 32°
2026-04-25 11:26 -3.69802 -69.48303 15423 ft 314 kts 32°
2026-04-25 11:26 -3.68044 -69.47031 15672 ft 315 kts 32°
2026-04-25 11:26 -3.66259 -69.45739 15924 ft 316 kts 32°
2026-04-25 11:27 -3.64462 -69.44438 16176 ft 317 kts 32°
2026-04-25 11:27 -3.62678 -69.43146 16426 ft 317 kts 32°
2026-04-25 11:27 -3.60885 -69.41848 16677 ft 317 kts 32°
2026-04-25 11:27 -3.59692 -69.40984 16843 ft 317 kts 32°
2026-04-25 11:28 -3.57307 -69.39257 17177 ft 317 kts 32°
2026-04-25 11:28 -3.56136 -69.38409 17340 ft 317 kts 32°
2026-04-25 11:28 -3.53741 -69.36675 17675 ft 317 kts 32°
2026-04-25 11:28 -3.51960 -69.35386 17924 ft 317 kts 32°
2026-04-25 11:29 -3.50175 -69.34094 18173 ft 317 kts 32°
2026-04-25 11:29 -3.48973 -69.33225 18341 ft 317 kts 32°
2026-04-25 11:29 -3.47193 -69.31937 18590 ft 317 kts 32°
2026-04-25 11:29 -3.45401 -69.30640 18841 ft 317 kts 32°
2026-04-25 11:30 -3.43627 -69.29356 19089 ft 316 kts 32°
2026-04-25 11:30 -3.41843 -69.28066 19339 ft 316 kts 32°
2026-04-25 11:30 -3.40052 -69.26770 19590 ft 316 kts 32°
2026-04-25 11:30 -3.38258 -69.25473 19841 ft 316 kts 32°
2026-04-25 11:31 -3.36485 -69.24191 20090 ft 316 kts 32°
2026-04-25 11:31 -3.34698 -69.22899 20340 ft 316 kts 32°
2026-04-25 11:31 -3.32934 -69.21623 20588 ft 316 kts 32°
2026-04-25 11:31 -3.31153 -69.20335 20805 ft 316 kts 32°
2026-04-25 11:32 -3.29343 -69.19028 20936 ft 320 kts 32°
2026-04-25 11:32 -3.27527 -69.17717 20995 ft 324 kts 32°
2026-04-25 11:32 -3.25700 -69.16398 21003 ft 328 kts 32°
2026-04-25 11:32 -3.23830 -69.15048 21002 ft 331 kts 32°
2026-04-25 11:33 -3.21953 -69.13693 21001 ft 333 kts 32°
2026-04-25 11:33 -3.20079 -69.12338 21001 ft 335 kts 32°
2026-04-25 11:33 -3.18183 -69.10968 21001 ft 336 kts 32°
2026-04-25 11:33 -3.16280 -69.09592 21000 ft 336 kts 32°
2026-04-25 11:34 -3.14394 -69.08228 21000 ft 337 kts 32°
2026-04-25 11:34 -3.12476 -69.06840 21000 ft 337 kts 32°
2026-04-25 11:34 -3.10594 -69.05479 21000 ft 337 kts 32°
2026-04-25 11:34 -3.08689 -69.04102 21000 ft 338 kts 32°
2026-04-25 11:35 -3.06794 -69.02731 21000 ft 338 kts 32°
2026-04-25 11:35 -3.04888 -69.01353 21000 ft 338 kts 32°
2026-04-25 11:35 -3.02975 -68.99971 21000 ft 338 kts 32°
2026-04-25 11:35 -3.01061 -68.98587 21000 ft 338 kts 32°
2026-04-25 11:36 -2.99168 -68.97219 21000 ft 338 kts 32°
2026-04-25 11:36 -2.97246 -68.95830 21000 ft 338 kts 32°
2026-04-25 11:36 -2.95347 -68.94457 21000 ft 338 kts 32°
2026-04-25 11:36 -2.93459 -68.93094 21000 ft 338 kts 32°
2026-04-25 11:37 -2.91542 -68.91709 21000 ft 338 kts 32°
2026-04-25 11:37 -2.89641 -68.90335 21000 ft 338 kts 32°
2026-04-25 11:37 -2.87729 -68.88954 21000 ft 338 kts 32°
2026-04-25 11:37 -2.85826 -68.87579 21000 ft 338 kts 32°
2026-04-25 11:38 -2.83930 -68.86209 21000 ft 338 kts 32°
2026-04-25 11:38 -2.82009 -68.84822 21000 ft 338 kts 32°
2026-04-25 11:38 -2.80123 -68.83460 21000 ft 338 kts 32°
2026-04-25 11:38 -2.78200 -68.82070 21000 ft 338 kts 32°
2026-04-25 11:39 -2.76305 -68.80702 21000 ft 338 kts 32°
2026-04-25 11:39 -2.74384 -68.79314 21000 ft 338 kts 32°
2026-04-25 11:39 -2.72471 -68.77933 21000 ft 338 kts 32°
2026-04-25 11:39 -2.70566 -68.76558 21000 ft 338 kts 32°
2026-04-25 11:40 -2.68664 -68.75184 21000 ft 338 kts 32°
2026-04-25 11:40 -2.66778 -68.73823 21000 ft 338 kts 32°
2026-04-25 11:40 -2.64858 -68.72436 21000 ft 338 kts 32°
2026-04-25 11:40 -2.62957 -68.71063 21000 ft 338 kts 32°
2026-04-25 11:41 -2.61040 -68.69679 21000 ft 338 kts 32°
2026-04-25 11:41 -2.59142 -68.68309 21000 ft 338 kts 32°
2026-04-25 11:41 -2.57238 -68.66934 21000 ft 338 kts 32°
2026-04-25 11:41 -2.55320 -68.65549 21000 ft 338 kts 32°
2026-04-25 11:42 -2.53415 -68.64174 21000 ft 338 kts 32°
2026-04-25 11:42 -2.51510 -68.62799 21000 ft 338 kts 32°
2026-04-25 11:42 -2.49595 -68.61416 21000 ft 338 kts 32°
2026-04-25 11:42 -2.47712 -68.60057 21000 ft 338 kts 32°
2026-04-25 11:43 -2.45803 -68.58679 21000 ft 338 kts 32°
2026-04-25 11:43 -2.43893 -68.57301 21000 ft 338 kts 32°
2026-04-25 11:43 -2.42011 -68.55942 21000 ft 338 kts 32°
2026-04-25 11:43 -2.40058 -68.54532 21000 ft 338 kts 32°
2026-04-25 11:44 -2.38145 -68.53151 21000 ft 338 kts 32°
2026-04-25 11:44 -2.36229 -68.51768 21000 ft 338 kts 32°
2026-04-25 11:44 -2.34338 -68.50403 21000 ft 338 kts 32°
2026-04-25 11:44 -2.32820 -68.49307 21000 ft 338 kts 32°
2026-04-25 11:45 -2.30920 -68.47935 21000 ft 338 kts 32°
2026-04-25 11:45 -2.29029 -68.46558 21000 ft 338 kts 33°
2026-04-25 11:45 -2.27129 -68.45158 21000 ft 338 kts 33°
2026-04-25 11:45 -2.25234 -68.43754 21000 ft 338 kts 33°
2026-04-25 11:46 -2.23362 -68.42361 21000 ft 338 kts 33°
2026-04-25 11:46 -2.21469 -68.40950 21000 ft 338 kts 33°
2026-04-25 11:46 -2.19580 -68.39538 21000 ft 338 kts 33°
2026-04-25 11:46 -2.17689 -68.38125 21000 ft 338 kts 33°
2026-04-25 11:47 -2.15800 -68.36711 21000 ft 338 kts 33°
2026-04-25 11:47 -2.13932 -68.35313 21000 ft 338 kts 33°
2026-04-25 11:47 -2.12034 -68.33892 21000 ft 338 kts 33°
2026-04-25 11:47 -2.10163 -68.32491 21000 ft 339 kts 33°
2026-04-25 11:48 -2.08265 -68.31070 21000 ft 339 kts 33°
2026-04-25 11:48 -2.06400 -68.29674 21000 ft 339 kts 33°
2026-04-25 11:48 -2.04510 -68.28259 21000 ft 339 kts 33°
2026-04-25 11:48 -2.02615 -68.26840 21000 ft 339 kts 33°
2026-04-25 11:49 -2.00729 -68.25427 21000 ft 339 kts 33°
2026-04-25 11:49 -1.98856 -68.24024 21000 ft 339 kts 33°
2026-04-25 11:49 -1.96962 -68.22606 21000 ft 339 kts 33°
2026-04-25 11:49 -1.95091 -68.21205 21000 ft 339 kts 33°
2026-04-25 11:50 -1.93204 -68.19792 21000 ft 339 kts 33°
2026-04-25 11:50 -1.91312 -68.18376 21000 ft 339 kts 33°
2026-04-25 11:50 -1.89444 -68.16977 21000 ft 339 kts 33°
2026-04-25 11:50 -1.87552 -68.15560 21000 ft 339 kts 33°
2026-04-25 11:51 -1.85657 -68.14142 21000 ft 339 kts 33°
2026-04-25 11:51 -1.83787 -68.12742 21000 ft 339 kts 33°
2026-04-25 11:51 -1.81891 -68.11322 21000 ft 339 kts 33°
2026-04-25 11:51 -1.80001 -68.09907 21000 ft 339 kts 33°
2026-04-25 11:52 -1.78129 -68.08505 21000 ft 339 kts 33°
2026-04-25 11:52 -1.76237 -68.07089 21000 ft 339 kts 33°
2026-04-25 11:52 -1.74342 -68.05670 21000 ft 339 kts 33°
2026-04-25 11:52 -1.72477 -68.04274 21000 ft 339 kts 33°
2026-04-25 11:53 -1.70589 -68.02861 21000 ft 339 kts 33°
2026-04-25 11:53 -1.68692 -68.01442 21000 ft 339 kts 33°
2026-04-25 11:53 -1.66803 -68.00028 21000 ft 339 kts 33°
2026-04-25 11:53 -1.64936 -67.98630 21000 ft 339 kts 33°
2026-04-25 11:54 -1.63038 -67.97210 21000 ft 339 kts 33°
2026-04-25 11:54 -1.61143 -67.95791 21000 ft 339 kts 33°
2026-04-25 11:54 -1.57379 -67.92974 21000 ft 339 kts 33°
2026-04-25 11:55 -1.55485 -67.91557 21000 ft 339 kts 33°
2026-04-25 11:55 -1.53614 -67.90156 21000 ft 339 kts 33°
2026-04-25 11:55 -1.51722 -67.88740 21000 ft 339 kts 33°
2026-04-25 11:55 -1.49852 -67.87341 21000 ft 339 kts 33°
2026-04-25 11:56 -1.47957 -67.85923 21000 ft 339 kts 33°
2026-04-25 11:56 -1.46061 -67.84504 21000 ft 339 kts 33°
2026-04-25 11:56 -1.44195 -67.83108 21000 ft 339 kts 33°
2026-04-25 11:56 -1.42304 -67.81693 21000 ft 339 kts 33°
2026-04-25 11:57 -1.40409 -67.80275 21000 ft 339 kts 33°
2026-04-25 11:57 -1.38523 -67.78863 21000 ft 339 kts 33°
2026-04-25 11:57 -1.36657 -67.77467 20946 ft 335 kts 33°
2026-04-25 11:57 -1.34774 -67.76058 20450 ft 338 kts 33°
2026-04-25 11:58 -1.32909 -67.74661 20259 ft 332 kts 33°
2026-04-25 11:58 -1.31076 -67.73287 20083 ft 326 kts 33°
2026-04-25 11:58 -1.29270 -67.71933 19910 ft 323 kts 33°
2026-04-25 11:58 -1.27491 -67.70601 19740 ft 323 kts 33°
2026-04-25 11:59 -1.25674 -67.69241 19568 ft 324 kts 33°
2026-04-25 11:59 -1.23886 -67.67905 19399 ft 324 kts 33°
2026-04-25 11:59 -1.22049 -67.66532 19225 ft 324 kts 33°
2026-04-25 12:00 -1.18460 -67.63850 18885 ft 324 kts 33°
2026-04-25 12:00 -1.16648 -67.62495 18714 ft 324 kts 33°
2026-04-25 12:00 -1.13044 -67.59800 18372 ft 324 kts 33°
2026-04-25 12:01 -1.11224 -67.58438 18200 ft 324 kts 33°
2026-04-25 12:01 -1.09440 -67.57104 18031 ft 324 kts 33°
2026-04-25 12:01 -1.07630 -67.55750 17859 ft 324 kts 33°
2026-04-25 12:01 -1.05808 -67.54387 17687 ft 324 kts 33°
2026-04-25 12:02 -1.02204 -67.51691 17345 ft 324 kts 33°
2026-04-25 12:02 -1.00402 -67.50344 17174 ft 324 kts 33°
2026-04-25 12:02 -0.98604 -67.48999 17004 ft 324 kts 33°
2026-04-25 12:03 -0.96792 -67.47643 16832 ft 323 kts 33°
2026-04-25 12:03 -0.95020 -67.46318 16664 ft 323 kts 33°
2026-04-25 12:03 -0.93276 -67.45013 16498 ft 323 kts 33°
2026-04-25 12:03 -0.91489 -67.43677 16329 ft 323 kts 33°
2026-04-25 12:04 -0.89678 -67.42322 16157 ft 323 kts 33°
2026-04-25 12:04 -0.87873 -67.40973 15985 ft 323 kts 33°
2026-04-25 12:04 -0.86091 -67.39640 15816 ft 323 kts 33°
2026-04-25 12:04 -0.84295 -67.38297 15645 ft 323 kts 33°
2026-04-25 12:05 -0.82493 -67.36949 15474 ft 323 kts 33°
2026-04-25 12:05 -0.80686 -67.35597 15302 ft 323 kts 33°
2026-04-25 12:05 -0.78909 -67.34268 15133 ft 323 kts 33°
2026-04-25 12:05 -0.77100 -67.32916 14961 ft 323 kts 33°
2026-04-25 12:06 -0.75322 -67.31586 14792 ft 323 kts 33°
2026-04-25 12:06 -0.73519 -67.30237 14620 ft 322 kts 33°
2026-04-25 12:06 -0.71738 -67.28905 14450 ft 322 kts 33°
2026-04-25 12:06 -0.69952 -67.27569 14280 ft 321 kts 33°
2026-04-25 12:07 -0.68156 -67.26226 14108 ft 321 kts 33°
2026-04-25 12:07 -0.66383 -67.24900 13938 ft 320 kts 33°
2026-04-25 12:07 -0.64593 -67.23561 13766 ft 319 kts 33°
2026-04-25 12:07 -0.62841 -67.22249 13595 ft 315 kts 33°
2026-04-25 12:08 -0.61094 -67.20941 13423 ft 312 kts 33°
2026-04-25 12:08 -0.59355 -67.19640 13250 ft 311 kts 33°
2026-04-25 12:08 -0.57625 -67.18345 13079 ft 309 kts 33°
2026-04-25 12:08 -0.55927 -67.17076 12910 ft 308 kts 33°
2026-04-25 12:09 -0.54204 -67.15788 12738 ft 308 kts 33°
2026-04-25 12:09 -0.52503 -67.14516 12567 ft 307 kts 33°
2026-04-25 12:09 -0.50788 -67.13234 12396 ft 306 kts 33°
2026-04-25 12:09 -0.49654 -67.12387 12282 ft 306 kts 33°
2026-04-25 12:10 -0.47389 -67.10693 12054 ft 305 kts 33°
2026-04-25 12:10 -0.45690 -67.09423 11883 ft 305 kts 33°
2026-04-25 12:10 -0.43989 -67.08151 11711 ft 304 kts 33°
2026-04-25 12:10 -0.42313 -67.06898 11541 ft 303 kts 33°
2026-04-25 12:11 -0.40614 -67.05628 11369 ft 303 kts 33°
2026-04-25 12:11 -0.39493 -67.04790 11255 ft 303 kts 33°
2026-04-25 12:11 -0.37257 -67.03118 11028 ft 302 kts 33°
2026-04-25 12:11 -0.36144 -67.02285 10915 ft 301 kts 33°
2026-04-25 12:12 -0.33912 -67.00617 10687 ft 301 kts 33°
2026-04-25 12:12 -0.32801 -66.99785 10573 ft 300 kts 33°
2026-04-25 12:12 -0.30578 -66.98123 10346 ft 300 kts 33°
2026-04-25 12:12 -0.28907 -66.96874 10174 ft 299 kts 33°
2026-04-25 12:13 -0.27799 -66.96045 10060 ft 299 kts 33°
2026-04-25 12:13 -0.25590 -66.94393 9833 ft 298 kts 33°
2026-04-25 12:13 -0.23925 -66.93148 9661 ft 298 kts 33°
2026-04-25 12:13 -0.22824 -66.92325 9547 ft 297 kts 33°
2026-04-25 12:14 -0.21177 -66.91093 9377 ft 297 kts 33°
2026-04-25 12:14 -0.19527 -66.89860 9206 ft 296 kts 33°
2026-04-25 12:14 -0.17870 -66.88620 9034 ft 296 kts 33°
2026-04-25 12:14 -0.16225 -66.87390 8863 ft 295 kts 33°
2026-04-25 12:15 -0.14590 -66.86168 8563 ft 298 kts 33°
2026-04-25 12:15 -0.12942 -66.84935 8187 ft 292 kts 33°
2026-04-25 12:15 -0.11338 -66.83733 7810 ft 283 kts 33°
2026-04-25 12:15 -0.09775 -66.82561 7320 ft 276 kts 33°
2026-04-25 12:16 -0.08254 -66.81422 6821 ft 274 kts 33°
2026-04-25 12:16 -0.06711 -66.80369 6330 ft 262 kts 24°
2026-04-25 12:16 -0.05074 -66.79930 5832 ft 230 kts 359°
2026-04-25 12:16 -0.03605 -66.80235 5331 ft 207 kts 333°
2026-04-25 12:17 -0.02578 -66.81157 4828 ft 195 kts 303°
2026-04-25 12:17 -0.02194 -66.82421 4341 ft 193 kts 276°
2026-04-25 12:17 -0.02173 -66.83747 3938 ft 188 kts 271°
2026-04-25 12:17 -0.02090 -66.85059 3560 ft 191 kts 276°
2026-04-25 12:18 -0.02141 -66.86376 3177 ft 196 kts 254°
2026-04-25 12:18 -0.02740 -66.87495 2862 ft 169 kts 233°
2026-04-25 12:18 -0.03503 -66.88324 2479 ft 156 kts 224°
2026-04-25 12:18 -0.04299 -66.89043 2093 ft 155 kts 221°
2026-04-25 12:19 -0.05680 -66.90228 1865 ft 157 kts 221°
2026-04-25 12:19 -0.06721 -66.91168 1891 ft 156 kts 223°
2026-04-25 12:19 -0.07548 -66.91924 1916 ft 167 kts 222°
2026-04-25 12:20 -0.08413 -66.92700 1824 ft 170 kts 221°
2026-04-25 12:20 -0.09305 -66.93490 1650 ft 168 kts 221°
2026-04-25 12:20 -0.10147 -66.94241 1467 ft 161 kts 222°
2026-04-25 12:20 -0.10970 -66.94987 1286 ft 157 kts 222°
2026-04-25 12:21 -0.11771 -66.95720 1095 ft 155 kts 223°
2026-04-25 12:21 -0.12531 -66.96418 866 ft 147 kts 223°
2026-04-25 12:21 -0.13273 -66.97101 572 ft 140 kts 223°
2026-04-25 12:21 -0.13959 -66.97738 284 ft 128 kts 223°
2026-04-25 12:22 -0.14486 -66.98226 257 ft 83 kts 222°
2026-04-25 12:22 -0.14759 -66.98474 257 ft 42 kts 222°
2026-04-25 12:22 -0.14927 -66.98629 257 ft 26 kts 222°
2026-04-25 12:22 -0.15015 -66.98708 257 ft 20 kts 222°
2026-04-25 12:23 -0.15122 -66.98806 257 ft 17 kts 222°
2026-04-25 12:23 -0.15229 -66.98903 257 ft 19 kts 224°
2026-04-25 12:23 -0.15331 -66.98997 257 ft 22 kts 222°
2026-04-25 12:23 -0.15427 -66.99085 257 ft 15 kts 221°
2026-04-25 12:24 -0.15463 -66.99167 257 ft 10 kts 311°
2026-04-25 12:24 -0.15389 -66.99251 257 ft 15 kts 315°
2026-04-25 12:24 -0.15361 -66.99296 257 ft 13 kts 287°
2026-04-25 12:24 -0.15354 -66.99352 257 ft 0 kts 258°